Regional Weather Roundup
Issued by NWS

Home | Current Version | Previous Version | Text Only | Print | Product List | Glossary Off
Versions: 1 2 3 4 5 6 7 8 9 10 11 12 13 14 15 16 17 18 19 20 21 22 23 24 25 26 27 28 29 30 31 32 33 34 35 36 37 38 39 40 41 42 43 44 45 46 47 48 49 50

000
ASUS43 KLSX 310307
RWRMO

WEATHER SUMMARY FOR MISSOURI
NATIONAL WEATHER SERVICE SPRINGFIELD MO
1000 PM CDT SUN AUG 30 2015

NOTE: "FAIR" INDICATES FEW OR NO CLOUDS BELOW 12,000 FEET WITH NO
       SIGNIFICANT WEATHER AND/OR OBSTRUCTIONS TO VISIBILITY.
       CURRENT SKY AND/OR WEATHER CONDITIONS ARE NOT AVAILABLE FOR
       CHILLICOTHE AND FARMINGTON.

MOZ001>031-035>038-043-044-053-054-310400-
...NORTHERN AND WESTERN MISSOURI...

CITY           SKY/WX    TMP DP  RH WIND       PRES   REMARKS
KANSAS CTY INT CLEAR     74  69  85 SE6       29.98R
KANSAS C DTWN  CLEAR     80  71  74 SE6       29.96R
LEE`S SUMMIT   CLEAR     77  70  79 SE3       29.99R
ST JOSEPH      PTCLDY    72  68  87 E3        29.97R
CHILLICOTHE      N/A     76  71  85 CALM      29.99S
KIRKSVILLE     CLEAR     71  66  84 SE5       30.02R

$$
MOZ066>068-077>081-088>096-101>105-310400-
...SOUTHWEST MISSOURI...

CITY           SKY/WX    TMP DP  RH WIND       PRES   REMARKS
SPRINGFIELD    CLEAR     76  70  82 SE7       30.01R
JOPLIN         CLEAR     76  71  85 SE6       29.98R

$$
MOZ032>034-039>042-045>050-055>058-069>072-310400-
...CENTRAL MISSOURI...

CITY           SKY/WX    TMP DP  RH WIND       PRES   REMARKS
COLUMBIA       PTCLDY    76  72  87 SE6       30.01R
JEFFERSON CITY MOCLDY    76  72  87 SE5       29.99R
ROLLA          PTCLDY    75  70  84 S7        30.02R
SEDALIA        MOCLDY    79  72  79 SE7       30.01R
WHITEMAN AFB   PTCLDY    76  73  89 SE5       29.98R
WARRENSBURG    MOCLDY    75  70  83 SW6       29.98R
OSAGE BEACH    CLEAR     75  70  83 CALM      30.01F

$$
MOZ051-052-059>065-310400-
...EAST CENTRAL MISSOURI...

CITY           SKY/WX    TMP DP  RH WIND       PRES   REMARKS
ST LOUIS INTL  MOCLDY    82  70  66 S8        30.02R
SPIRIT OF STL  PTCLDY    75  73  93 CALM      30.00R
ST CHARLES     CLEAR     74  71  91 E5        30.00R

$$
MOZ072>076-082>087-097>100-106>115-310400-
...SOUTH CENTRAL AND SOUTHEAST MISSOURI...

CITY           SKY/WX    TMP DP  RH WIND       PRES   REMARKS
CAPE GIRARDEAU PTCLDY    74  69  85 SE7       30.04R
FARMINGTON     PTCLDY    73  73 100 CALM      30.06S
POPLAR BLUFF   CLEAR     74  68  81 SE7       30.01S
WEST PLAINS    CLEAR     74  68  81 CALM      30.05S

$$



USA.gov is the U.S. government's official web portal to all federal, state and local government web resources and services.